Cleveland, Oklahoma, United States (74020)
Lat: 36.31N, Lon: 96.46W
Wx Zone: OKZ059
Local Info
Past Weather Observations for Today

NOTE: This archive is for the closest National Weather Service station to Cleveland. Information may differ from the station used for current weather conditions.

Click here for Long-term Archive

Time Weather Temperature Dewpoint Humidity Pressure Winds Precip Visibility
14:55
Clear
82°F / 28°C 70°F / 21°C 66% 30.04 in
(1017 mb)
S 6.9 mph
(S 11 kph)
-
14:35
Clear
82°F / 28°C 68°F / 20°C 62% 30.04 in
(1017 mb)
S 6.9 mph
(S 11 kph)
-
14:15
Clear
81°F / 27°C 68°F / 20°C 66% 30.06 in
(1018 mb)
SE 8.1 mph
(SE 13 kph)
-
13:55
Clear
81°F / 27°C 68°F / 20°C 66% 30.06 in
(1018 mb)
SSE 8.1 mph
(SSE 13 kph)
-
13:35
Clear
79°F / 26°C 66°F / 19°C 65% 30.09 in
(1019 mb)
SE 8.1 mph
(SE 13 kph)
-
13:15
Clear
79°F / 26°C 64°F / 18°C 61% 30.09 in
(1019 mb)
SE 10.4 mph
(SE 17 kph)
-
12:55
Clear
77°F / 25°C 66°F / 19°C 69% 30.12 in
(1020 mb)
E 8.1 mph
(E 13 kph)
-
12:35
Clear
77°F / 25°C 64°F / 18°C 65% 30.12 in
(1020 mb)
E 9.2 mph
(E 15 kph)
-
12:15
Clear
77°F / 25°C 64°F / 18°C 65% 30.12 in
(1020 mb)
E 11.5 mph
(E 19 kph)
-
11:55
Clear
75°F / 24°C 64°F / 18°C 69% 30.15 in
(1021 mb)
E 15 mph
(E 24 kph)
-
11:35
Clear
73°F / 23°C 64°F / 18°C 74% 30.15 in
(1021 mb)
E 13.8 mph
(E 22 kph)
-
11:15
Clear
73°F / 23°C 64°F / 18°C 74% 30.15 in
(1021 mb)
E 12.7 mph
(E 20 kph)
-
10:55
Clear
75°F / 24°C 68°F / 20°C 78% 30.12 in
(1020 mb)
E 12.7 mph
(E 20 kph)
-
10:35
Clear
77°F / 25°C 68°F / 20°C 74% 30.12 in
(1020 mb)
ENE 10.4 mph
(ENE 17 kph)
-
10:15
Clear
77°F / 25°C 68°F / 20°C 74% 30.12 in
(1020 mb)
ENE 12.7 mph
(ENE 20 kph)
-
09:55
Clear
77°F / 25°C 68°F / 20°C 74% 30.09 in
(1019 mb)
S 4.6 mph
(S 7 kph)
-
09:35
Clear
75°F / 24°C 68°F / 20°C 78% 30.09 in
(1019 mb)
SSE 4.6 mph
(SSE 7 kph)
-
09:15
Clear
73°F / 23°C 66°F / 19°C 78% 30.06 in
(1018 mb)
S 3.5 mph
(S 6 kph)
-
08:55
Clear
72°F / 22°C 66°F / 19°C 83% 30.06 in
(1018 mb)
SSE 3.5 mph
(SSE 6 kph)
-
08:35
Clear
72°F / 22°C 66°F / 19°C 83% 30.06 in
(1018 mb)
Calm -
08:15
Fair
70°F / 21°C 66°F / 19°C 88% 30.06 in
(1018 mb)
S 3.5 mph
(S 6 kph)
-
07:55
Fair
70°F / 21°C 64°F / 18°C 83% 30.06 in
(1018 mb)
S 4.6 mph
(S 7 kph)
-
07:35
Fair
68°F / 20°C 64°F / 18°C 88% 30.06 in
(1018 mb)
S 3.5 mph
(S 6 kph)
-
07:15
Fair
68°F / 20°C 64°F / 18°C 88% 30.06 in
(1018 mb)
S 4.6 mph
(S 7 kph)
-
06:55
Fair
68°F / 20°C 64°F / 18°C 88% 30.06 in
(1018 mb)
SSE 3.5 mph
(SSE 6 kph)
-
06:35
Fair
66°F / 19°C 64°F / 18°C 94% 30.06 in
(1018 mb)
S 3.5 mph
(S 6 kph)
-
06:15
Fair
66°F / 19°C 64°F / 18°C 94% 30.06 in
(1018 mb)
SSE 4.6 mph
(SSE 7 kph)
-
05:55
Fair
68°F / 20°C 64°F / 18°C 88% 30.06 in
(1018 mb)
S 3.5 mph
(S 6 kph)
-
05:35
Fair
68°F / 20°C 64°F / 18°C 88% 30.06 in
(1018 mb)
Calm -
05:15
Fair
68°F / 20°C 66°F / 19°C 94% 30.04 in
(1017 mb)
Calm -
04:55
Fair
66°F / 19°C 66°F / 19°C 100% 30.04 in
(1017 mb)
Calm -
04:35
Fair
68°F / 20°C 66°F / 19°C 94% 30.06 in
(1018 mb)
Calm -
04:15
Fair
68°F / 20°C 66°F / 19°C 94% 30.06 in
(1018 mb)
SSE 3.5 mph
(SSE 6 kph)
-
03:55
Fair
68°F / 20°C 68°F / 20°C 100% 30.06 in
(1018 mb)
Calm -
03:35
Fair
70°F / 21°C 66°F / 19°C 88% 30.06 in
(1018 mb)
SSE 3.5 mph
(SSE 6 kph)
-
03:15
Fair
68°F / 20°C 68°F / 20°C 100% 30.06 in
(1018 mb)
Calm -
02:55
Fair
70°F / 21°C 68°F / 20°C 94% 30.06 in
(1018 mb)
Calm -
02:35
Fair
70°F / 21°C 68°F / 20°C 94% 30.06 in
(1018 mb)
SSE 3.5 mph
(SSE 6 kph)
-
02:15
Fair
70°F / 21°C 68°F / 20°C 94% 30.06 in
(1018 mb)
Calm -
01:55
Fair
72°F / 22°C 68°F / 20°C 88% 30.06 in
(1018 mb)
SSE 3.5 mph
(SSE 6 kph)
-
01:35
Fair
70°F / 21°C 68°F / 20°C 94% 30.06 in
(1018 mb)
Calm -
01:15
Fair
72°F / 22°C 68°F / 20°C 88% 30.06 in
(1018 mb)
SSE 3.5 mph
(SSE 6 kph)
-
00:55
Fair
72°F / 22°C 68°F / 20°C 88% 30.06 in
(1018 mb)
S 3.5 mph
(S 6 kph)
-
00:35
Fair
72°F / 22°C 68°F / 20°C 88% 30.06 in
(1018 mb)
Calm -
00:15
Fair
72°F / 22°C 70°F / 21°C 94% 30.06 in
(1018 mb)
Calm -
Time Weather Temperature Dewpoint Humidity Pressure Winds Precip Visibility


Weather for websites

WeatherForYou.com, LLC is not responsible for any damages or problems caused by this service. Current weather conditions are obtained from the closest station including government and personal stations which may have varying degrees of accuracy. Weather forecasts are derived from the NOAA NDFD. Like all things, this site belongs to Jesus Christ... He just trusts us to maintain it. If you have any questions or comments email webmaster@weatherforyou.com

Copyright © 2015, WeatherForYou.com LLC. All rights reserved.